Disclaimer

Please do not use the information listed here in-flight or in-navigation, as they are not provided to us by the airports but are provided by volunteers, so they might be outdated.

Search


Regions


Airport information page

Radio informations:
ARPT OFFICE - 131.5 MHz
CARGO HANDLING - 122.075 MHz

Airport informations:
Latitude: 55° 44' 25.16" N
Longitude: 009° 09' 06.40" E
Elevation: 247 feet - 75 meters
Operating hours: Remarks
Operating agency: Civil government, landing fees and diplomatic clearance may be required
Timezone: UTC+1(+2DT) - Last Sunday in March to last Sunday in October
Fuel: Jet A1, without icing nhibitor.

100/130 MIL Spec, low lead, aviation gasoline (BLUE)

Runway information:
09/27 - 10172 x 148 feet< - >3100 x 45 meters

Recent METARs:
EKBI 212120Z AUTO 00000KT 6000 FZBCFG FEW024/// M03/M03 Q1014 R09/310195
EKBI 212150Z AUTO 09002KT 9999 FZBCFG BKN024/// M03/M03 Q1013 R09/310195
EKBI 212220Z AUTO 12002KT 7000 FEW021/// M03/M03 Q1013 R09/310195

Airport on the map: